Location: Arthez
(43.0833°N, 0.2500°W)
Time: 21:59:57
(UTC+00:00)

deb Kosmos-970 - Pass Details

Date: 18 August 2022
Orbit: 900 x 1112 km, 65.8° (Epoch: 28 September)

Event Time Altitude Azimuth Distance (km) Brightness Sun altitude
Rises 21:01:37 0° 324° (NW) 3,946 ? -20.1°
Reaches altitude 10° 21:06:13 10° 351° (N) 2,984 ? -20.7°
Maximum altitude 21:09:22 13° 18° (NNE) 2,741 ? -21.2°
Drops below altitude 10° 21:12:30 10° 45° (NE) 2,957 ? -21.6°
Enters shadow 21:16:33 - 69° (ENE) 3,766 ? -22.1°
